| time (UTC) | temp F | wind direction | speed MPH | gust MPH | rain 1hr in | rain 24hr in | rain mn in | humidity % | barometer mb |
| 20260505090101 | 47 | 30 | 3.0 | 8.0 | 0.00 | 0.00 | 0.00 | 69 | 1015.3 |
| 20260505084603 | 47 | 322 | 3.0 | 11.0 | 0.00 | 0.00 | 0.00 | 70 | 1015.3 |
| 20260505083014 | 48 | 355 | 4.0 | 8.0 | 0.00 | 0.00 | 0.00 | 70 | 1015.3 |
| 20260505081533 | 47 | 10 | 3.0 | 8.0 | 0.00 | 0.00 | 0.00 | 74 | 1015.1 |
| 20260505074543 | 46 | 336 | 2.0 | 8.0 | 0.00 | 0.00 | 0.00 | 80 | 1014.9 |
| 20260505073138 | 46 | 272 | 3.0 | 9.0 | 0.00 | 0.00 | 0.00 | 81 | 1014.8 |
| 20260505071605 | 45 | 314 | 5.0 | 11.0 | 0.00 | 0.00 | 0.00 | 83 | 1014.8 |
| 20260505070123 | 46 | 304 | 2.0 | 8.0 | 0.00 | 0.00 | 0.00 | 87 | 1014.8 |
| 20260505064514 | 46 | 311 | 3.0 | 8.0 | 0.00 | 0.00 | 0.00 | 88 | 1014.8 |
| 20260505063050 | 45 | 277 | 3.0 | 8.0 | 0.00 | 0.00 | 0.00 | 89 | 1014.8 |
| 20260505061544 | 45 | 298 | 3.0 | 6.0 | 0.00 | 0.00 | 0.00 | 90 | 1014.6 |
| 20260505060057 | 45 | 252 | 2.0 | 5.0 | 0.00 | 0.00 | 0.00 | 90 | 1014.4 |
| 20260505054549 | 45 | 261 | 2.0 | 8.0 | 0.00 | 0.00 | 0.00 | 90 | 1014.3 |
| 20260505053114 | 45 | 265 | 1.0 | 6.0 | 0.00 | 0.00 | 0.00 | 89 | 1014.2 |
| 20260505051609 | 44 | 268 | 1.0 | 5.0 | 0.00 | 0.00 | 0.00 | 89 | 1014.3 |
| 20260505050118 | 44 | 250 | 2.0 | 7.0 | 0.00 | 0.00 | 0.00 | 89 | 1014.2 |
| 20260505041546 | 44 | 254 | 2.0 | 7.0 | 0.00 | 0.00 | 0.00 | 88 | 1014.0 |
| 20260505040116 | 44 | 258 | 2.0 | 5.0 | 0.00 | 0.00 | 0.00 | 87 | 1014.2 |
| 20260505034612 | 44 | 269 | 2.0 | 6.0 | 0.00 | 0.00 | 0.00 | 87 | 1014.2 |
| 20260505033128 | 44 | 263 | 2.0 | 7.0 | 0.00 | 0.00 | 0.00 | 87 | 1014.1 |
| 20260505031537 | 44 | 302 | 2.0 | 8.0 | 0.00 | 0.00 | 0.00 | 87 | 1014.1 |
| 20260505030100 | 44 | 256 | 2.0 | 9.0 | 0.00 | 0.00 | 0.00 | 87 | 1014.1 |
| 20260505024608 | 44 | 271 | 3.0 | 9.0 | 0.00 | 0.00 | 0.00 | 87 | 1014.1 |
| 20260505023126 | 44 | 284 | 2.0 | 8.0 | 0.00 | 0.00 | 0.00 | 87 | 1014.1 |
| 20260505021531 | 44 | 249 | 4.0 | 8.0 | 0.00 | 0.00 | 0.00 | 87 | 1014.1 |
| 20260505020055 | 44 | 263 | 4.0 | 9.0 | 0.00 | 0.00 | 0.00 | 87 | 1014.2 |
| 20260505014550 | 44 | 325 | 3.0 | 8.0 | 0.00 | 0.00 | 0.00 | 86 | 1014.2 |
| 20260505013130 | 44 | 261 | 3.0 | 11.0 | 0.00 | 0.00 | 0.00 | 86 | 1014.2 |
| 20260505011506 | 44 | 224 | 3.0 | 9.0 | 0.00 | 0.00 | 0.00 | 85 | 1014.2 |
| 20260505010009 | 44 | 224 | 4.0 | 8.0 | 0.00 | 0.00 | 0.00 | 85 | 1014.2 |
| 20260505004545 | 44 | 254 | 4.0 | 10.0 | 0.00 | 0.00 | 0.00 | 85 | 1014.2 |
| 20260505003105 | 44 | 276 | 4.0 | 11.0 | 0.00 | 0.00 | 0.00 | 85 | 1014.2 |
| 20260505001554 | 44 | 326 | 5.0 | 12.0 | 0.00 | 0.00 | 0.00 | 84 | 1014.2 |
| 20260505000126 | 44 | 238 | 4.0 | 9.0 | 0.00 | 0.00 | 0.00 | 84 | 1014.3 |
| 20260504234527 | 44 | 283 | 4.0 | 11.0 | 0.00 | 0.00 | 0.00 | 83 | 1014.4 |
| 20260504233054 | 44 | 270 | 4.0 | 10.0 | 0.00 | 0.00 | 0.00 | 83 | 1014.5 |
| 20260504231538 | 45 | 252 | 3.0 | 8.0 | 0.00 | 0.00 | 0.00 | 82 | 1014.6 |
| 20260504230023 | 45 | 257 | 4.0 | 11.0 | 0.00 | 0.00 | 0.00 | 81 | 1014.5 |
| 20260504224545 | 45 | 252 | 5.0 | 11.0 | 0.00 | 0.00 | 0.00 | 81 | 1014.5 |
| 20260504223111 | 46 | 252 | 4.0 | 9.0 | 0.00 | 0.00 | 0.00 | 80 | 1014.6 |
| 20260504221609 | 46 | 250 | 3.0 | 7.0 | 0.00 | 0.00 | 0.00 | 79 | 1014.7 |
| 20260504220125 | 46 | 263 | 2.0 | 8.0 | 0.00 | 0.00 | 0.00 | 78 | 1014.6 |
| 20260504214525 | 47 | 250 | 3.0 | 5.0 | 0.00 | 0.00 | 0.00 | 77 | 1014.7 |
| 20260504213056 | 47 | 258 | 3.0 | 9.0 | 0.00 | 0.00 | 0.00 | 77 | 1014.7 |
| 20260504211559 | 48 | 280 | 4.0 | 8.0 | 0.00 | 0.00 | 0.00 | 77 | 1014.7 |
| 20260504210120 | 48 | 285 | 3.0 | 8.0 | 0.00 | 0.00 | 0.00 | 76 | 1014.8 |
| 20260504204526 | 48 | 246 | 2.0 | 10.0 | 0.00 | 0.00 | 0.00 | 76 | 1014.9 |
| 20260504203103 | 49 | 278 | 3.0 | 10.0 | 0.00 | 0.00 | 0.00 | 76 | 1014.8 |
| 20260504201621 | 49 | 290 | 4.0 | 9.0 | 0.00 | 0.00 | 0.00 | 75 | 1014.8 |
| 20260504200121 | 49 | 275 | 2.0 | 11.0 | 0.00 | 0.00 | 0.00 | 75 | 1014.7 |
| 20260504194533 | 50 | 231 | 3.0 | 9.0 | 0.00 | 0.00 | 0.00 | 74 | 1014.6 |
| 20260504193118 | 50 | 311 | 3.0 | 12.0 | 0.00 | 0.00 | 0.00 | 73 | 1014.5 |
| 20260504191608 | 51 | 245 | 4.0 | 10.0 | 0.00 | 0.00 | 0.00 | 72 | 1014.4 |
| 20260504190129 | 51 | 300 | 5.0 | 12.0 | 0.00 | 0.00 | 0.00 | 70 | 1014.3 |
| 20260504184554 | 52 | 250 | 4.0 | 12.0 | 0.00 | 0.00 | 0.00 | 69 | 1014.2 |
| 20260504183104 | 52 | 251 | 4.0 | 15.0 | 0.00 | 0.00 | 0.00 | 68 | 1014.2 |
| 20260504181601 | 53 | 276 | 4.0 | 13.0 | 0.00 | 0.00 | 0.00 | 68 | 1014.2 |
| 20260504180130 | 53 | 264 | 5.0 | 13.0 | 0.00 | 0.00 | 0.00 | 65 | 1014.0 |
| 20260504174530 | 54 | 298 | 4.0 | 9.0 | 0.00 | 0.00 | 0.00 | 62 | 1014.1 |
| 20260504173048 | 55 | 238 | 3.0 | 10.0 | 0.00 | 0.00 | 0.00 | 59 | 1014.1 |
| 20260504171544 | 56 | 216 | 4.0 | 13.0 | 0.00 | 0.00 | 0.00 | 57 | 1014.1 |
| 20260504170108 | 56 | 236 | 4.0 | 11.0 | 0.00 | 0.00 | 0.00 | 57 | 1014.1 |
| 20260504160105 | 56 | 320 | 6.0 | 15.0 | 0.00 | 0.00 | 0.00 | 56 | 1014.3 |
| 20260504140128 | 58 | 342 | 3.0 | 11.0 | 0.00 | 0.00 | 0.00 | 56 | 1014.5 |
| 20260504120131 | 54 | 249 | 5.0 | 16.0 | 0.00 | 0.01 | 0.00 | 62 | 1014.7 |
| 20260504110115 | 53 | 258 | 6.0 | 15.0 | 0.00 | 0.01 | 0.00 | 69 | 1014.6 |
| 20260504100122 | 53 | 249 | 5.0 | 12.0 | 0.00 | 0.01 | 0.00 | 73 | 1014.6 |